RADUGA 23 [-]

Last updated on July 6, 2021, 3:35 p.m. UTC

1 19928U 89030A   21186.90604995 -.00000269  00000-0  00000-0 0  9997
2 19928  13.8548 345.5710 0021520 145.5190 214.4025  1.00192206116726
UTC
Height (km)
Latitude
Longitude
Inclination
Orbital Period
UTC large
Height (km)
Speed (km/s)
/
Latitude / Longitude
Inclination (degrees)
Orbital Period (minutes)
Azimuth
Elevation
Range (km)
Doppler Factor
iOS Compass Heading
iOS Angle